| time (UTC) | temp F | wind direction | speed MPH | gust MPH | rain 1hr in | rain 24hr in | rain mn in | humidity % | barometer mb |
| 20260905190213 | 70 | 320 | 0.0 | 0.0 | 0.00 | 0.00 | 0.00 | 65 | 1020.3 |
| 20260905180207 | 72 | 279 | 0.0 | 0.0 | 0.00 | 0.00 | 0.00 | 61 | 1019.9 |
| 20260905160205 | 75 | 312 | 0.0 | 6.0 | 0.00 | 0.00 | 0.00 | 58 | 1019.6 |
| 20260905150207 | 75 | 282 | 1.0 | 10.0 | 0.00 | 0.00 | 0.00 | 59 | 1019.9 |
| 20260905140207 | 73 | 319 | 0.0 | 0.0 | 0.00 | 0.00 | 0.00 | 64 | 1020.1 |
| 20260905130206 | 73 | 300 | 2.0 | 9.0 | 0.00 | 0.00 | 0.00 | 65 | 1020.4 |
| 20260905120208 | 74 | 3 | 2.0 | 10.0 | 0.00 | 0.00 | 0.00 | 66 | 1020.2 |
| 20260905110206 | 75 | 340 | 0.0 | 5.0 | 0.00 | 0.00 | 0.00 | 59 | 1019.4 |
| 20260905100206 | 76 | 204 | 0.0 | 5.0 | 0.00 | 0.00 | 0.00 | 57 | 1019.4 |
| 20260905090208 | 74 | 296 | 0.0 | 5.0 | 0.00 | 0.00 | 0.00 | 62 | 1018.9 |
| 20260905080205 | 73 | 314 | 1.0 | 6.0 | 0.00 | 0.00 | 0.00 | 65 | 1018.5 |
| 20260905070206 | 71 | 193 | 0.0 | 2.0 | 0.00 | 0.00 | 0.00 | 68 | 1017.7 |
| 20260905060206 | 71 | 256 | 0.0 | 0.0 | 0.00 | 0.00 | 0.00 | 64 | 1016.8 |
| 20260905050206 | 71 | 266 | 0.0 | 4.0 | 0.00 | 0.00 | 0.00 | 62 | 1016.3 |
| 20260905040209 | 71 | 204 | 0.0 | 4.0 | 0.00 | 0.00 | 0.00 | 62 | 1015.7 |
| 20260905030220 | 70 | 304 | 0.0 | 1.0 | 0.00 | 0.00 | 0.00 | 61 | 1015.4 |
| 20260905020209 | 71 | 305 | 1.0 | 6.0 | 0.00 | 0.00 | 0.00 | 57 | 1015.1 |
| 20260905010215 | 72 | 344 | 0.0 | 2.0 | 0.00 | 0.00 | 0.00 | 53 | 1014.5 |
| 20260905000211 | 70 | 257 | 0.0 | 0.0 | 0.00 | 0.00 | 0.00 | 62 | 1014.0 |
| 20260904230207 | 74 | 256 | 0.0 | 0.0 | 0.00 | 0.00 | 0.00 | 56 | 1013.5 |
| 20260904220207 | 75 | 340 | 0.0 | 0.0 | 0.00 | 0.00 | 0.00 | 54 | 1013.2 |
| 20260904200207 | 76 | 316 | 0.0 | 0.0 | 0.00 | 0.00 | 0.00 | 54 | 1013.0 |